TimeEST,TemperatureF,Dew PointF,Humidity,Sea Level PressureIn,VisibilityMPH,Wind Direction,Wind SpeedMPH,Gust SpeedMPH,PrecipitationIn,Events,Conditions,WindDirDegrees,DateUTC
12:54 AM,35.1,32.0,89,29.91,10.0,West,6.9,-,N/A,,Overcast,270,2013-03-01 05:54:00
1:54 AM,35.1,32.0,89,29.91,10.0,West,4.6,-,N/A,,Overcast,270,2013-03-01 06:54:00
2:30 AM,35.6,30.2,81,29.88,10.0,West,6.9,-,N/A,,Overcast,270,2013-03-01 07:30:00
2:54 AM,35.1,30.9,85,29.89,10.0,West,5.8,-,N/A,,Overcast,270,2013-03-01 07:54:00
3:24 AM,33.8,32.0,93,29.87,4.0,NW,8.1,-,0.00,Rain-Snow,Light Snow,320,2013-03-01 08:24:00
3:54 AM,34.0,30.9,89,29.89,6.0,NW,6.9,-,0.01,Rain-Snow,Light Snow,310,2013-03-01 08:54:00
4:54 AM,33.1,30.0,89,29.90,10.0,NNW,6.9,-,0.00,,Overcast,330,2013-03-01 09:54:00
5:42 AM,33.8,30.2,87,29.88,10.0,NW,8.1,-,N/A,,Overcast,320,2013-03-01 10:42:00
5:54 AM,33.1,30.0,89,29.91,10.0,NNW,5.8,-,N/A,,Overcast,330,2013-03-01 10:54:00
6:54 AM,32.0,30.0,92,29.92,4.0,NW,6.9,-,0.00,Snow,Light Snow,320,2013-03-01 11:54:00
7:04 AM,32.0,30.2,93,29.90,2.0,NNW,6.9,-,0.00,Snow,Light Snow,330,2013-03-01 12:04:00
7:54 AM,32.0,28.9,88,29.94,6.0,NW,4.6,-,0.00,Snow,Light Snow,320,2013-03-01 12:54:00
8:41 AM,33.8,28.4,81,29.93,8.0,North,8.1,-,0.00,Snow,Light Snow,350,2013-03-01 13:41:00
8:54 AM,33.1,28.0,82,29.96,9.0,NW,5.8,-,0.00,Snow,Light Snow,310,2013-03-01 13:54:00
9:54 AM,33.1,27.0,78,29.96,7.0,NNW,5.8,-,0.00,Snow,Light Snow,340,2013-03-01 14:54:00
10:54 AM,34.0,28.0,79,29.96,9.0,NW,4.6,-,0.00,Snow,Light Snow,320,2013-03-01 15:54:00
11:54 AM,36.0,27.0,70,29.97,9.0,North,8.1,-,0.00,Snow,Light Snow,360,2013-03-01 16:54:00
12:54 PM,36.0,27.0,70,29.96,6.0,North,4.6,-,0.00,Snow,Light Snow,360,2013-03-01 17:54:00
1:54 PM,36.0,28.0,73,29.94,8.0,NW,4.6,-,0.00,Snow,Light Snow,320,2013-03-01 18:54:00
2:54 PM,36.0,28.0,73,29.94,8.0,NNW,4.6,-,0.00,Snow,Light Snow,340,2013-03-01 19:54:00
3:54 PM,37.0,28.0,70,29.94,8.0,Calm,Calm,-,0.00,Snow,Light Snow,0,2013-03-01 20:54:00
4:54 PM,36.0,26.1,67,29.94,9.0,NNW,8.1,-,0.00,Snow,Light Snow,340,2013-03-01 21:54:00
5:27 PM,35.6,28.4,75,29.93,9.0,North,4.6,-,0.00,Snow,Light Snow,350,2013-03-01 22:27:00
5:54 PM,35.1,28.0,76,29.96,9.0,Calm,Calm,-,0.00,Snow,Light Snow,0,2013-03-01 22:54:00
6:54 PM,35.1,27.0,72,29.98,9.0,NW,8.1,-,0.00,Snow,Light Snow,310,2013-03-01 23:54:00
7:54 PM,34.0,26.1,73,29.99,9.0,NW,6.9,-,0.00,Snow,Light Snow,320,2013-03-02 00:54:00
8:54 PM,33.1,27.0,78,29.99,9.0,North,5.8,-,0.00,Snow,Light Snow,360,2013-03-02 01:54:00
9:54 PM,33.1,26.1,75,29.99,10.0,North,5.8,-,0.00,,Overcast,360,2013-03-02 02:54:00
10:54 PM,32.0,24.1,73,29.99,10.0,North,6.9,-,N/A,,Overcast,360,2013-03-02 03:54:00
11:54 PM,32.0,24.1,73,29.99,10.0,Variable,3.5,-,N/A,,Overcast,0,2013-03-02 04:54:00